ENBR

Bergen/Flesland

Airport
ICAO code
ENBR
Summary
ICAO Region
EUR
ICAO Territory
Location

Bergen,

Elevation
170 ft
Coordinates
60° 17' 36" N , 5° 13' 5" E
KCC
Airport BS
Non Avian Wildlife Hazards to Aircraft
Airport WX
Low Level Turbulence
Metar
ENBR 301620Z 32008KT 9999 VCTS FEW030CB BKN051 17/13 Q1009 TEMPO TSRA RMK WIND 1200FT 30009KT

Description

International airport 8 nm south west of Bergen.

Climatology

Temperate Marine climate/Oceanic climate (Köppen climate classification Cfb). Moderately cool summer and comparatively warm winter with a temperature range of only 14°C. Prevailing south-westerly winds from the Atlantic Ocean. Despite its latitude, Bergen is one of the warmest cities in Norway because of the influence of the Atlantic Gulf Stream current.

Runways

Designator Length Width Surface Rops
17/35 2990 45 ASP Yes/Yes

SKYbrary Partners:

Safety knowledge contributed by: